Regional Weather Roundup
Issued by NWS

Home | Current Version | Previous Version | Text Only | Print | Product List | Glossary Off
Versions: 1 2 3 4 5 6 7 8 9 10 11 12 13 14 15 16 17 18 19 20 21 22 23 24 25 26 27 28 29 30 31 32 33 34 35 36 37 38 39 40 41 42 43 44 45 46 47 48 49 50

000
ASUS45 KSLC 240610
RWRUT

UTAH REGIONAL WEATHER ROUNDUP
NATIONAL WEATHER SERVICE SALT LAKE CITY UT
1200 AM MDT WED MAY 24 2017

UTZ001>011-023>025-240700-

NORTHERN UTAH

CITY           SKY/WX    TMP DP  RH WIND       PRES   REMARKS
BRIGHAM CITY   CLEAR     62  43  49 CALM      29.99S
HILL AFB       CLEAR     61  35  37 E13       30.00F
LOGAN          CLEAR     55  45  68 SW8       29.99F
OGDEN          CLEAR     60  37  42 S8        29.98F
SALT LAKE CITY CLEAR     67  39  35 SE8       29.97F
TOOELE VALLEY  CLEAR     57  39  51 S12       29.98F
WENDOVER       CLEAR     65  40  39 W5        29.97
HEBER CITY     CLEAR     45  36  70 CALM      30.07F
WEST JORDAN    CLEAR     62  49  63 CALM      30.00F

$$

UTZ011>015-024>027-240700-

CENTRAL/NORTHEAST UTAH

CITY           SKY/WX    TMP DP  RH WIND       PRES   REMARKS
PROVO AIRPORT  CLEAR     58  46  64 S7        30.02F
MOAB/CANYONLAN CLEAR     56  25  30 W3        30.02F
DELTA          CLEAR     59  36  41 NE6       30.02F
PRICE          CLEAR     55  33  43 NE7       30.09F
ROOSEVELT      CLEAR     48  39  71 SW5       30.08F
VERNAL         CLEAR     54  38  54 NW5       30.06F

$$

UTZ013>016-019>022-027-240700-

SOUTHERN UTAH

CITY           SKY/WX    TMP DP  RH WIND       PRES   REMARKS
BRYCE CANYON   CLEAR     39  29  67 W8        30.24F WCI  33
CEDAR CITY     CLEAR     61  32  33 S5        30.08S
MILFORD        CLEAR     59  30  33 W10       30.03F
HANKSVILLE     CLEAR     61  30  31 N3        30.03F
BLANDING       CLEAR     53  30  41 N3        30.19S

$$

REGIONAL REPORTS     COLORADO/ARIZONA

CITY           SKY/WX    TMP DP  RH WIND       PRES   REMARKS
CRAIG, CO      CLEAR     40  34  79 SE3       30.13F
GRAND JUNCTION PTCLDY    56  31  38 SE7       30.06F
RIFLE, CO      CLEAR     51  30  44 SE9       30.12F
MONTROSE, CO   CLEAR     52  28  39 SE12      30.15F
CORTEZ, CO     CLEAR     44  33  65 E5        30.14S
COLORADO CITY    N/A     54  32  43 CALM      30.08F
PAGE, AZ       CLEAR     69  35  28 S5        30.00F
GRAND CANYON   CLEAR     43  27  53 E3        30.20F
KINGMAN, AZ    CLEAR     66  23  19 MISG      29.96F
FLAGSTAFF, AZ  CLEAR     45  27  49 N3        30.22F

$$

REGIONAL REPORTS    NEVADA/IDAHO/WYOMING

CITY           SKY/WX    TMP DP  RH WIND       PRES   REMARKS
LAS VEGAS, NV  CLEAR     88  22   9 SW3       29.82F
ELY, NY        CLEAR     48  25  40 S9        30.13S
ELKO, NV       CLEAR     56  40  55 E3        30.04F
POCATELLO, ID  CLEAR     57  41  55 S9        29.95F
BURLEY, ID     CLEAR     58  45  62 SW12      29.93F
FORT BRIDGER,    N/A     56  30  38 SW12      30.16F
EVANSTON, WY   CLEAR     50  31  48 SW6       30.15F
ROCK SPRINGS,  CLEAR     54  38  54 W13       30.08F
KEMMERER, WY     N/A     48  37  66 SW9       30.14F

$$



USA.gov is the U.S. government's official web portal to all federal, state and local government web resources and services.